Regional Weather Roundup
Issued by NWS

Home | Current Version | Previous Version | Text Only | Print | Product List | Glossary Off
Versions: 1 2 3 4 5 6 7 8 9 10 11 12 13 14 15 16 17 18 19 20 21 22 23 24 25 26 27 28 29 30 31 32 33 34 35 36 37 38 39 40 41 42 43 44 45 46 47 48 49 50

874
ASUS43 KDTX 130410
RWRMI
MICHIGAN HOURLY REGIONAL WEATHER ROUNDUP
NATIONAL WEATHER SERVICE DETROIT/PONTIAC MI
1100 PM EST FRI FEB 12 2016

NOTE: "FAIR" INDICATES FEW OR NO CLOUDS BELOW 12,000 FEET WITH NO
SIGNIFICANT WEATHER AND/OR OBSTRUCTION TO VISIBILITY.

MIZ047>049-052>055-059>063-066>070-074>076-081>083-130500-
SOUTHEAST LOWER MICHIGAN

CITY           SKY/WX    TMP DP  RH WIND       PRES   REMARKS
ADRIAN         PTCLDY    10   1  67 N15G24    30.22R WCI  -7
ALMA           CLEAR      7  -6  55 NW14      30.25R WCI -10
ANN ARBOR      MOCLDY     9   0  67 N16       30.20R WCI  -8
BAD AXE        CLEAR      5  -5  62 NW18G28   30.17R HAZE    WCI -15
CARO           PTCLDY     5  -6  61 N9        30.19R WCI  -9
DETROIT CITY   CLEAR     10  -5  50 NW12G22   30.19R WCI  -5
DETROIT        PTCLDY    10  -4  53 NW17G24   30.21R WCI  -8
FLINT          LGT SNOW   9   1  70 NW16      30.21R VSB 1   WCI  -8
GROSSE ILE     CLEAR     10  -4  52 NW13G20   30.19R WCI  -5
HILLSDALE      FLURRIES  10   2  71 N14G22    30.19R WCI  -6
HOWELL         CLEAR      7  -8  50 NW12G20   30.20R WCI  -9

CITY           SKY/WX    TMP DP  RH WIND       PRES   REMARKS
JACKSON        PTCLDY     8  -5  55 NW13      30.22R WCI  -8
LAMBERTVILLE   CLOUDY    12   4  70 N16       30.22R WCI  -5
LANSING        PTCLDY     7  -6  55 NW16G23   30.25R WCI -11
LAPEER         LGT SNOW   7   3  86 N10       30.18R WCI  -8
MASON          PTCLDY     7  -5  58 N13G20    30.23R WCI  -9
MONROE         CLEAR     11  -2  54 N14       30.20R WCI  -4
MT. CLEMENS    FLURRIES   9  -2  61 NW15      30.17R WCI  -8
PONTIAC        PTCLDY     7  -7  52 NW18      30.16R WCI -12
PORT HOPE        N/A      8  -1  66 NW24G48   30.14R WCI -13
PORT HURON     CLEAR      7  -6  56 NW12G18   30.17R WCI  -9
TRI CITIES     PTCLDY     7  -6  55 NW16      30.24R WCI -11
MIDLAND        MOCLDY     6  -2  67 NW12      30.24R WCI  -9
TROY           CLEAR     10  -4  51 NW14G22   30.20R WCI  -5
SAGINAW HB     PTCLDY     7  -4  61 NW10      30.24R WCI  -8
$$
MIZ043>046-050>051-056>058-064>065-071>073-077>080-130500-
SOUTHWEST LOWER MICHIGAN

CITY           SKY/WX    TMP DP  RH WIND       PRES   REMARKS
BATTLE CREEK   FLURRIES  10  -1  61 N15G23    30.25R WCI  -7
BENTON HARBOR  LGT SNOW  15   6  67 NW13G31   30.32R VSB 1   WCI   1
BIG RAPIDS     CLEAR      4  -6  63 NW10G17   30.25R WCI -11
COLDWATER      CLEAR     11  -1  58 NW10G20   30.23R WCI  -3
FREMONT        MOCLDY     6  -2  70 N17G23    30.30R WCI -13
HOLLAND        FLURRIES  10  -1  61 N15G24    30.32R WCI  -7
GRAND RAPIDS   PTCLDY     8  -3  61 NW20      30.28R WCI -11
IONIA          FAIR       6  -7  54 NW14G20   30.27R WCI -11
KALAMAZOO      LGT SNOW  10   1  67 N23G31    30.27R WCI -10
LUDINGTON      LGT SNOW   8   0  70 NW12G24   30.34R WCI  -8
MARSHALL       MOCLDY     9  -4  56 N7G16     30.24R WCI  -2
MOUNT PLEASANT CLEAR      7  -6  56 NW9G22    30.24R WCI  -7
MUSKEGON       LGT SNOW   9   3  77 N16G30    30.33R VSB 3/4 WCI  -8
SOUTH HAVEN    CLOUDY    14   7  75 NW15G29   30.30R WCI  -1
$$
MIZ016>042-130500-
NORTHERN LOWER MICHIGAN

CITY           SKY/WX    TMP DP  RH WIND       PRES   REMARKS
ALPENA         SNOW       2  -4  76 N20G29    30.21R VSB 1/2 WCI -19
BEAVER ISLAND  CLOUDY     7  -2  67 N12G20    30.25R WCI  -8
BELLAIRE       CLOUDY     8  -3  60 N10G21    30.24R WCI  -7
CADILLAC       CLOUDY     2  -4  77 W9G16     30.19R WCI -13
CHARLEVOIX     LGT SNOW   9  -2  62 N21G32    30.25R WCI -11
FRANKFORT      CLOUDY     9  -2  62 N10G22    30.31R HAZE    WCI  -6
GAYLORD        LGT SNOW   0  -5  79 N8G21     30.14R VSB 1   WCI -14
GRAYLING       CLOUDY     3  -4  73 NW7       30.16S HAZE    WCI -10
HARBOR SPRINGS PTCLDY     1  -8  66 N9G16     30.24R WCI -14
HOUGHTON LAKE  LGT SNOW   3  -3  76 NW15      30.18R WCI -16
MANISTEE       CLOUDY     9  -2  61 N16G26    30.31R WCI  -9
OSCODA         CLEAR      2  -8  61 NW13G20   30.19R WCI -15
PELLSTON       MIX PCPN  -1  -8  72 NE16      30.25R WCI -21
ROGERS CITY    CLOUDY     1  -6  73 N20G32    30.23R HAZE    WCI -21
TRAVERSE CITY  LGT SNOW   8   3  80 NW17G25   30.26R VSB 3/4 WCI -10
$$
MIZ007>008-015-130500-
EASTERN UPPER MICHIGAN

CITY           SKY/WX    TMP DP  RH WIND       PRES   REMARKS
KINROSS        CLOUDY   -11 -24  53 NE13      30.25R WCI -32
MACKINAC ISLAN PTCLDY    -7 -17  63 NE15G25   30.26R WCI -28
NEWBERRY       LGT SNOW   1  -2  88 N5        30.22R WCI  -9
S. S. MARIE    CLEAR    -12 -25  52 NE13G22   30.26R WCI -33
MUNISING         N/A      7   3  84 N23       30.27R WCI -14
$$
MIZ004>006-011>014-085-130500-
CENTRAL UPPER MICHIGAN

CITY           SKY/WX    TMP DP  RH WIND       PRES   REMARKS
MANISTIQUE     LGT SNOW   3  -1  83 W9        30.26R WCI -12
ESCANABA       CLEAR      0 -11  60 W13       30.33R WCI -18
MENOMINEE      CLEAR      0  -9  65 W3        30.38R
SAWYER-GWINN   CLOUDY     0  -7  73 NW16      30.25R WCI -20
$$
MIZ001>003-009>011-084-130500-
WESTERN UPPER MICHIGAN

CITY           SKY/WX    TMP DP  RH WIND       PRES   REMARKS
IRON MOUNTAIN  CLEAR     -6 -11  79 NW5       30.30R WCI -17
HOUGHTON       LGT SNOW   1  -5  75 NW17      30.33R VSB 3/4 WCI -19
COPPER HARBOR    N/A      6   2  83 NE31G41   30.32S WCI -18
IRONWOOD       CLOUDY     1  -2  85 W12G18    30.37R WCI -15
$$

ABBREVIATIONS USED IN REMARKS
   TC - TEMPERATURE IN CELSIUS
  WCI - WIND CHILL INDEX
   HX - HEAT INDEX
  VSB - VISIBILITY





USA.gov is the U.S. government's official web portal to all federal, state and local government web resources and services.